Location: Mentone
(34.5413°N, 85.5351°W)
Time: 19:29:31
(UTC-05:00)

Cosmos 2026 Rocket - Visible Passes

Search period start: 02 August 2015 00:00
Search period end: 12 August 2015 00:00
Orbit: 940 x 1001 km, 82.9° (Epoch: 01 August)

Date Brightness Start Highest point End Pass type
(mag) Time Alt. Az. Time Alt. Az. Time Alt. Az.
02 Aug 4.8 20:48:23 10° NNE 20:53:37 30° ENE 20:56:42 20° ESE visible
02 Aug 5.3 22:33:30 10° NNW 22:38:55 32° W 22:41:17 24° SW visible
03 Aug 4.1 21:11:49 10° N 21:17:49 56° E 21:20:53 29° SSE visible
03 Aug 6.1 22:58:44 10° NW 23:02:40 17° W 23:05:28 12° WSW visible
04 Aug 4.0 21:35:43 10° N 21:41:50 80° W 21:45:05 29° S visible
05 Aug 5.1 20:15:32 10° NNE 20:20:11 23° ENE 20:24:45 11° SE visible
05 Aug 4.9 22:00:00 10° NNW 22:05:43 42° W 22:09:20 21° SSW visible
06 Aug 4.4 20:38:44 10° N 20:44:29 43° ENE 20:49:02 16° SE visible
06 Aug 5.9 22:24:51 10° NW 22:29:30 22° W 22:33:38 11° SW visible
07 Aug 3.9 21:02:27 10° N 21:08:35 81° E 21:13:22 17° S visible
07 Aug 6.6 22:51:27 10° WNW 22:53:11 11° W 22:54:26 10° W visible
08 Aug 4.5 21:26:34 10° NNW 21:32:31 55° W 21:37:45 13° SSW visible
09 Aug 4.7 20:05:44 10° NNE 20:11:07 33° ENE 20:16:34 10° SE visible
09 Aug 5.6 21:51:09 10° NNW 21:56:19 29° W 22:01:20 10° SW visible
10 Aug 4.0 20:29:15 10° N 20:35:17 62° E 20:41:17 10° SSE visible
10 Aug 6.4 22:16:38 10° NW 22:20:03 15° W 22:23:06 10° WSW visible
11 Aug 4.2 20:53:13 10° N 20:59:17 71° W 21:05:17 10° S visible
